Wind_Speed
22 23 25 25 25 26 27 28 28 28 28 29 30 30 29 29 29 29 29 29 29 30 30 29 30 30 29 30 30 31 30 29 28 28 27 26 26 25 25 25 25 24 24 23
23 23 24 24 24 25 27 27 28 29 29 29 30 30 29 29 29 28 28 29 29 29 29 29 30 30 30 30 31 32 31 31 30 29 27 26 27 27 27 26 26 25 25 24
22 23 24 24 24 24 25 26 27 28 28 29 29 29 29 29 29 28 28 28 28 28 29 30 30 31 32 32 32 32 31 31 31 30 29 28 27 28 28 28 28 28 26 25
22 23 23 23 24 24 24 25 26 27 27 28 29 29 28 28 28 28 29 29 28 29 29 29 30 31 33 32 32 31 30 30 30 30 30 29 29 29 30 30 29 29 27 27
22 22 22 22 22 22 23 23 24 24 25 25 26 26 27 27 28 29 29 30 29 30 30 30 31 31 31 32 30 30 30 29 30 30 30 30 30 29 30 30 29 28 28 28
21 21 21 22 21 20 21 22 22 22 23 23 23 24 25 26 28 29 29 30 30 30 31 31 31 31 31 31 31 30 30 30 30 30 30 30 30 30 30 30 29 29 28 27
20 21 21 21 20 19 20 21 20 20 21 22 23 24 25 25 26 27 27 28 28 28 28 29 30 30 30 30 30 29 30 31 30 30 30 30 30 30 30 29 29 29 28 27
20 20 21 20 19 19 20 20 20 20 21 21 22 23 23 24 24 25 26 26 26 27 27 28 28 28 28 30 30 30 31 32 32 31 30 30 30 31 31 30 30 30 29 28
19 20 21 20 19 19 19 20 20 20 20 19 20 20 20 21 22 23 23 23 24 25 26 25 26 27 27 27 28 29 30 31 31 30 30 30 31 31 31 30 30 31 30 30
19 19 19 19 19 19 18 19 19 19 19 19 19 19 20 20 20 21 22 23 23 24 24 24 24 25 25 26 27 29 29 29 29 30 30 31 31 31 31 31 30 31 31 31
19 18 18 19 19 19 19 18 19 18 18 19 19 19 19 20 20 21 21 21 22 22 23 23 23 24 24 25 26 27 27 27 28 29 29 29 30 30 31 31 31 31 30 31
18 18 18 19 19 19 19 19 19 18 18 19 19 18 18 18 19 20 21 21 21 21 22 23 23 23 23 23 24 24 25 26 27 27 28 28 29 29 30 30 30 30 30 30
17 17 17 17 18 17 17 17 17 17 18 18 18 18 18 18 18 19 19 19 20 20 21 21 21 21 22 22 22 22 24 25 26 26 27 28 28 29 29 30 30 30 29 29
16 16 16 16 16 16 15 16 16 17 17 17 17 17 17 17 17 17 17 17 18 18 19 20 20 20 21 21 21 21 22 23 23 25 26 26 27 27 28 28 29 29 29 29
15 15 15 15 15 15 15 16 16 16 16 16 16 16 16 16 16 16 16 17 17 18 19 19 19 19 20 20 20 20 21 21 22 22 23 24 25 25 26 27 27 28 28 28
15 15 14 14 14 15 16 16 16 15 15 16 16 16 16 16 16 15 15 15 16 17 18 17 17 18 18 18 18 19 19 20 20 21 22 22 22 24 25 27 27 27 27 27
16 15 14 14 15 15 15 16 16 16 16 16 16 16 16 16 16 15 15 15 16 16 17 16 15 15 16 16 16 17 18 19 19 20 21 22 22 22 23 24 24 25 25 25
15 15 14 14 14 14 15 16 16 16 16 16 16 16 16 16 15 14 14 15 15 15 15 15 15 15 15 16 16 16 17 18 19 20 21 21 21 21 23 23 23 24 24 25
14 13 14 14 15 15 16 16 16 16 16 16 16 16 15 15 15 15 14 13 13 14 14 14 14 15 15 15 15 16 17 18 19 20 20 20 19 21 21 22 23 24 24 25
12 12 13 13 14 14 14 14 14 14 15 15 15 15 15 15 15 15 15 14 13 13 13 13 13 14 14 15 15 16 16 16 17 19 20 19 19 20 21 21 22 23 24 24
12 11 11 12 12 13 13 13 13 13 14 14 14 14 14 14 14 13 14 14 13 13 13 12 13 13 13 14 14 15 15 16 16 18 19 19 19 20 21 21 22 22 23 23
11 11 11 11 12 12 12 13 13 13 13 13 13 13 12 12 12 13 13 13 13 13 13 14 14 14 14 14 14 14 15 16 17 18 19 20 20 20 21 21 21 22 23 23
12 12 12 12 12 12 12 12 12 13 13 13 13 12 12 12 12 12 12 12 13 13 13 13 14 14 15 15 14 14 15 15 16 17 18 19 20 20 20 20 21 21 22 22
13 13 13 12 12 12 12 12 12 12 12 12 12 12 12 12 12 12 12 12 12 12 12 13 12 13 13 14 14 15 15 16 16 16 17 18 18 19 20 20 21 21 21 21
14 14 13 13 12 12 13 12 12 12 12 12 12 11 11 11 11 12 12 12 12 12 11 12 12 13 13 14 14 15 15 15 16 16 17 17 18 19 20 19 19 19 19 19
14 14 13 13 13 13 13 12 12 12 12 12 12 12 11 11 11 11 11 11 11 10 11 11 11 12 12 13 14 14 15 15 15 16 16 16 17 17 17 17 18 18 17 17
14 14 13 13 13 13 13 13 13 13 13 13 13 13 12 11 11 12 11 11 10 11 11 11 11 12 13 13 14 15 15 16 16 16 17 16 16 16 16 16 16 17 17 17
Wind_Direction
267 267 268 267 267 265 266 267 267 268 271 271 270 270 271 270 267 266 265 264 262 262 260 258 258 259 258 257 257 256 256 255 255 255 254 255 256 255 254 256 258 262 266 267
270 270 271 270 269 267 267 266 266 267 269 272 271 270 270 268 266 265 262 262 262 261 260 258 257 256 257 257 256 256 256 256 256 256 253 254 255 256 255 256 258 261 265 266
273 274 274 273 271 270 268 267 266 266 268 271 271 270 269 267 264 263 261 261 261 260 260 257 255 255 256 256 255 256 256 254 254 255 255 254 253 254 254 256 258 261 264 264
277 277 274 273 274 270 269 267 266 266 269 271 270 270 268 267 265 263 262 262 261 259 258 258 256 256 257 256 254 255 257 255 254 255 254 252 253 254 255 255 258 261 262 264
277 279 276 275 275 273 270 269 268 268 270 272 272 270 267 265 265 264 262 261 261 259 260 262 260 257 257 254 253 254 254 254 254 254 254 252 251 253 255 257 258 259 261 263
277 276 277 278 278 276 273 273 272 273 272 273 274 271 269 267 266 265 264 264 263 263 263 263 262 259 257 253 253 254 252 252 253 254 253 251 250 251 253 254 255 256 258 260
276 276 278 278 277 275 275 276 277 277 276 275 275 273 271 269 268 266 265 264 263 265 264 264 263 260 256 254 252 254 253 252 252 251 251 250 251 251 252 252 253 255 257 257
278 277 277 276 274 274 275 277 277 278 277 277 276 274 272 271 270 269 267 267 265 264 263 262 262 261 259 256 254 253 253 252 250 249 249 249 250 250 253 253 255 257 259 258
277 276 275 275 273 275 276 277 279 279 279 279 278 277 276 274 272 271 271 271 267 264 261 263 264 262 261 257 254 253 252 251 250 248 248 250 251 252 253 254 256 258 259 259
280 278 277 276 275 276 277 277 279 280 281 279 280 280 277 274 272 272 272 272 270 266 266 268 267 265 263 260 256 253 251 251 250 249 250 251 252 252 253 253 256 257 258 260
280 277 275 275 276 277 278 277 278 280 281 282 283 282 276 273 273 274 274 272 272 270 270 270 267 264 263 260 257 253 251 252 251 250 249 250 252 253 253 253 255 256 257 260
280 278 277 278 279 281 281 280 280 280 282 285 288 287 283 278 276 278 279 277 274 272 271 270 268 264 261 260 259 255 251 252 251 248 248 248 250 251 251 252 253 256 258 261
280 279 280 280 282 282 281 281 282 283 284 286 287 288 286 283 279 280 280 276 273 273 273 271 269 266 261 260 258 255 253 253 250 248 248 249 249 250 252 252 254 257 259 262
285 283 282 283 284 287 288 286 286 287 286 287 288 287 286 283 281 281 278 276 274 274 275 273 269 265 263 260 259 256 255 254 252 252 251 251 251 253 254 254 256 258 260 261
288 286 285 287 289 290 291 293 293 291 290 291 292 291 287 286 286 283 278 277 274 274 275 275 271 266 264 261 258 256 255 253 252 252 252 252 252 254 254 256 259 260 261 261
289 287 286 285 285 287 290 292 294 294 292 294 294 292 292 292 290 288 282 278 276 275 274 274 272 268 265 261 258 256 255 254 253 252 252 253 255 257 256 258 260 261 261 262
289 286 283 282 281 284 288 291 293 292 290 291 294 294 293 290 290 288 285 282 280 276 272 272 271 268 262 259 258 257 256 256 256 254 255 257 260 260 259 259 260 262 262 264
287 283 281 280 281 285 290 292 292 293 291 289 290 293 293 289 288 288 286 281 279 276 273 270 268 267 265 261 260 260 259 259 258 255 257 259 260 260 262 262 263 265 266 269
284 278 276 278 282 286 289 291 291 293 295 294 292 292 291 289 288 289 289 283 278 276 276 273 267 261 262 262 263 263 263 260 259 258 258 260 261 262 263 264 265 267 269 271
284 281 279 278 279 283 289 294 296 296 298 299 297 294 292 288 286 288 288 282 276 274 274 273 269 266 266 268 267 265 265 264 263 261 262 262 261 262 264 266 267 268 269 271
282 286 286 284 282 283 288 293 298 300 301 302 301 298 294 290 287 288 288 285 278 275 274 274 273 269 267 273 273 270 268 267 267 268 266 265 264 264 266 267 268 268 269 271
282 285 289 290 289 290 291 295 301 305 303 304 305 304 299 294 292 290 290 288 284 280 275 273 275 276 275 275 273 271 270 269 269 270 268 267 267 268 269 270 271 270 270 270
286 289 290 291 291 290 292 297 300 302 301 302 302 301 300 299 298 296 296 294 290 285 282 279 277 276 277 276 273 273 275 275 274 273 272 271 270 270 271 272 271 271 272 271
287 289 290 289 289 290 289 291 295 298 300 300 299 299 298 297 297 297 297 296 294 290 286 284 283 281 279 277 277 276 275 276 276 275 274 274 274 273 273 273 271 270 270 270
284 286 286 285 285 286 287 288 291 294 298 301 302 301 297 295 295 296 297 297 294 293 293 291 289 286 283 283 284 282 280 281 282 282 282 281 280 279 277 275 274 274 273 272
283 283 282 281 282 283 285 285 288 292 296 299 300 301 299 294 293 294 295 294 294 294 296 297 296 293 291 290 289 288 286 287 287 286 286 285 284 283 281 278 277 276 274 273
282 281 281 279 278 281 282 282 284 288 292 296 298 299 299 297 296 297 298 295 293 296 297 294 293 294 294 293 292 291 290 290 289 290 289 289 288 286 283 278 276 276 275 274
Height
5787 5787 5787 5786 5787 5787 5787 5787 5788 5788 5787 5786 5786 5785 5785 5785 5785 5785 5786 5786 5787 5788 5788 5789 5790 5790 5791 5791 5792 5793 5794 5796 5797 5798 5799 5800 5801 5802 5803 5804 5805 5806 5806 5806
5780 5780 5779 5779 5779 5779 5779 5779 5778 5778 5778 5778 5777 5776 5776 5776 5776 5776 5777 5777 5778 5779 5779 5780 5781 5781 5782 5783 5784 5785 5786 5787 5789 5789 5791 5792 5794 5795 5796 5797 5798 5799 5799 5799
5774 5773 5772 5772 5772 5771 5771 5770 5770 5770 5771 5769 5768 5768 5767 5767 5767 5768 5768 5769 5769 5769 5770 5771 5772 5772 5773 5774 5775 5776 5777 5779 5780 5782 5783 5785 5786 5787 5789 5790 5791 5791 5792 5792
5767 5767 5766 5767 5764 5764 5762 5762 5761 5761 5761 5760 5760 5759 5759 5759 5759 5759 5759 5760 5760 5760 5761 5761 5762 5763 5764 5765 5765 5767 5768 5770 5772 5773 5775 5777 5778 5779 5781 5782 5783 5784 5784 5785
5761 5760 5758 5758 5757 5756 5755 5755 5754 5753 5753 5752 5751 5751 5750 5750 5750 5750 5750 5751 5751 5751 5752 5752 5753 5754 5754 5755 5756 5758 5760 5761 5763 5765 5766 5768 5770 5771 5772 5774 5775 5776 5777 5778
5754 5753 5753 5752 5751 5749 5749 5748 5747 5745 5745 5745 5744 5743 5743 5742 5741 5741 5741 5741 5742 5742 5742 5743 5743 5744 5745 5746 5747 5749 5751 5753 5755 5756 5758 5760 5761 5763 5765 5766 5767 5768 5769 5770
5748 5747 5746 5745 5744 5744 5744 5743 5740 5739 5738 5737 5736 5735 5735 5734 5733 5733 5733 5733 5733 5733 5733 5733 5734 5734 5735 5737 5739 5740 5742 5744 5746 5748 5750 5751 5753 5755 5756 5758 5759 5760 5762 5763
5742 5741 5742 5739 5738 5738 5737 5735 5734 5732 5731 5730 5729 5728 5727 5726 5726 5725 5725 5725 5725 5724 5724 5725 5725 5725 5726 5727 5729 5731 5733 5735 5736 5738 5741 5743 5745 5746 5748 5749 5751 5752 5754 5755
5737 5737 5734 5732 5732 5731 5730 5729 5728 5727 5725 5724 5723 5721 5720 5720 5719 5718 5718 5718 5717 5717 5717 5717 5717 5717 5717 5718 5719 5721 5723 5725 5727 5729 5732 5734 5736 5738 5739 5741 5743 5744 5745 5747
5730 5729 5727 5726 5725 5725 5724 5723 5722 5721 5720 5718 5717 5716 5714 5713 5713 5712 5712 5711 5710 5710 5710 5710 5709 5709 5709 5709 5710 5712 5714 5716 5718 5720 5722 5724 5727 5729 5730 5732 5734 5735 5737 5738
5724 5723 5721 5720 5719 5719 5718 5717 5716 5715 5714 5713 5711 5710 5708 5707 5706 5706 5705 5704 5703 5703 5703 5702 5701 5701 5701 5702 5703 5704 5706 5707 5709 5711 5713 5715 5717 5719 5722 5724 5725 5727 5729 5730
5718 5717 5716 5715 5714 5713 5712 5711 5710 5709 5708 5707 5705 5704 5702 5701 5700 5699 5698 5697 5697 5696 5696 5695 5694 5694 5694 5695 5695 5696 5698 5700 5701 5703 5705 5707 5709 5711 5713 5715 5717 5718 5720 5721
5712 5711 5710 5709 5708 5707 5707 5706 5705 5704 5703 5701 5700 5698 5696 5695 5694 5693 5692 5691 5690 5689 5689 5688 5687 5687 5688 5688 5688 5689 5690 5692 5693 5695 5697 5699 5701 5703 5705 5707 5708 5710 5711 5712
5707 5706 5705 5704 5703 5702 5701 5700 5700 5698 5697 5695 5694 5692 5691 5690 5689 5687 5686 5685 5684 5683 5682 5681 5681 5681 5681 5681 5682 5682 5683 5684 5686 5687 5689 5691 5693 5695 5697 5698 5700 5701 5702 5703
5701 5701 5700 5699 5698 5697 5697 5695 5694 5693 5692 5690 5689 5687 5686 5684 5683 5682 5680 5679 5678 5677 5676 5675 5674 5674 5674 5674 5675 5676 5676 5678 5679 5681 5682 5684 5686 5687 5689 5690 5691 5692 5693 5694
5697 5696 5695 5695 5694 5693 5692 5691 5689 5688 5687 5686 5684 5683 5681 5679 5678 5676 5675 5674 5673 5672 5671 5669 5669 5668 5668 5668 5668 5669 5670 5671 5672 5674 5675 5677 5679 5680 5681 5682 5683 5684 5684 5685
5692 5692 5691 5690 5689 5688 5687 5686 5685 5683 5682 5681 5679 5678 5676 5675 5673 5672 5670 5669 5667 5666 5665 5664 5663 5663 5662 5663 5663 5663 5664 5665 5666 5668 5669 5670 5671 5672 5673 5674 5675 5675 5676 5677
5687 5686 5686 5685 5684 5684 5682 5681 5680 5678 5677 5676 5674 5673 5671 5669 5668 5667 5665 5663 5662 5661 5660 5659 5658 5657 5657 5657 5658 5658 5659 5660 5660 5661 5663 5664 5664 5665 5666 5667 5667 5668 5668 5668
5682 5681 5681 5680 5680 5679 5677 5676 5675 5673 5672 5670 5669 5667 5666 5664 5663 5662 5660 5659 5657 5656 5655 5654 5653 5652 5652 5652 5653 5653 5653 5654 5654 5655 5656 5657 5657 5658 5659 5659 5660 5660 5660 5660
5677 5677 5676 5675 5675 5674 5673 5671 5670 5669 5667 5665 5664 5662 5661 5660 5658 5657 5656 5654 5653 5652 5650 5649 5648 5648 5647 5648 5648 5648 5648 5649 5649 5649 5650 5650 5651 5652 5652 5652 5652 5652 5652 5652
5673 5672 5671 5671 5670 5669 5668 5667 5666 5664 5663 5661 5659 5657 5656 5655 5653 5652 5651 5650 5649 5647 5646 5645 5644 5644 5644 5643 5643 5643 5643 5643 5643 5644 5644 5644 5645 5645 5645 5645 5645 5645 5645 5645
5669 5668 5667 5666 5666 5665 5664 5663 5662 5660 5658 5657 5655 5653 5652 5650 5649 5648 5647 5646 5644 5643 5642 5641 5640 5640 5639 5639 5639 5638 5638 5638 5638 5638 5638 5638 5639 5639 5639 5639 5638 5638 5637 5637
5664 5664 5663 5662 5661 5660 5660 5659 5658 5656 5655 5653 5651 5650 5648 5647 5645 5644 5643 5641 5640 5639 5638 5637 5636 5636 5635 5635 5634 5634 5634 5633 5633 5633 5633 5632 5632 5632 5632 5632 5631 5631 5630 5630
5660 5659 5658 5658 5657 5656 5655 5655 5654 5652 5651 5649 5648 5646 5645 5643 5642 5640 5639 5637 5636 5635 5634 5633 5632 5631 5631 5630 5630 5629 5629 5628 5628 5627 5627 5626 5626 5625 5625 5625 5624 5624 5623 5623
5655 5654 5654 5653 5652 5652 5651 5650 5649 5648 5647 5645 5644 5642 5640 5639 5638 5636 5635 5633 5632 5631 5630 5629 5628 5627 5627 5626 5625 5624 5624 5623 5622 5622 5621 5620 5620 5619 5619 5618 5617 5617 5616 5616
5650 5649 5649 5649 5648 5647 5646 5646 5645 5644 5643 5641 5640 5638 5636 5635 5633 5632 5631 5629 5628 5627 5626 5625 5624 5623 5622 5621 5620 5619 5619 5618 5617 5616 5616 5615 5614 5613 5612 5612 5611 5611 5610 5609
5645 5645 5644 5644 5643 5643 5642 5641 5640 5639 5638 5637 5636 5634 5632 5630 5629 5628 5627 5625 5625 5623 5622 5621 5620 5619 5618 5617 5615 5615 5614 5613 5612 5611 5610 5609 5608 5607 5606 5606 5605 5605 5604 5603